THORAD AGENA D DEB

Satellite information

Favourite Embed

Satellite Type and Status

DEBRISIN ORBIT

Key statistics

Satellite THORAD AGENA D DEB at a glance.

Uptime

20179

Days in orbit

Revolutions

≈ 14.2

Per day

Orbit

SSO

Sun Synchronous Orbit

Inclination

99.4

Latest

Satellite identification and parameters

Extended collection of information and parameters for THORAD AGENA D DEB.

Object identification

Identified? True

Debris? True

Object name: THORAD AGENA D DEB

International designator: 1970-025FG

Object number (NORAD): 4910

Object ID (CCSDS): 4910

Country: UNITED STATES OF AMERICA (US)

Current information (Y/N): Y

RCS size: SMALL

Orbital parameters

Period: 101.72 minutes

Inclination: 99.4268 deg

SMA: 7218.225 km

Apoapsis: 907.929 km

Periapsis: 772.25 km

RAAN: 248.365 deg

Eccentricy: 0.0093984

Argument of periapsis: 214.7295 deg

Mean anomaly: 144.7718 deg

Mean motion: 14.15654191 rev/day

Mean motion (dot): 0.00003759 rev/day2

B* drag term: 0.0018614 1/REarth

Two-line elements (TLE)

Creation date: July 6, 2025, 6:05 p.m.

Reference frame: TEME

Reference center: EARTH

Epoch: July 6, 2025, 2:01 p.m. UTC

TLE line 0: 0 THORAD AGENA D DEB

TLE line 1: 1 04910U 70025FG 25187.58468035 .00003759 00000-0 18614-2 0 9996

TLE line 2: 2 04910 99.4268 248.3650 0093984 214.7295 144.7718 14.15654191757384

Live tracking on map

Real-time ground track for satellite THORAD AGENA D DEB.

In-orbit conjunctions

A list of the most updated potential collisions computed for object THORAD AGENA D DEB.

Target Orbit TCA Probability of collision Miss distance Type
CZ-6A DEB LEO 2025-04-03 17:02:39 0.0001439312 159.0 (m) DEBRIS

Associated space launch

Meteorological research and development satellite

THORAD AGENA D DEB was lifted into orbit during the mission ‘Thorad SLV-2G Agena D | Nimbus 4’, on board a Thorad SLV-2G Agena D space rocket.

The launch took place on April 8, 1970, 8:17 a.m. from Space Launch Complex 2E.

For more information about the launch, click the button.

Launch to space Thorad SLV-2G Agena D | Nimbus 4
Thorad SLV-2G Agena D | Nimbus 4

Agency: N/A

Status: Launch Successful

Launch date: April 8, 1970, 8:17 a.m. UTC

Rocket: Thorad SLV-2G Agena D

Launch pad: Space Launch Complex 2E

Location: Vandenberg SFB, CA, USA

...

Latest news about this satellite

There are no fresh news available about this satellite. Check back as we update our databases every day.


Newsletter sign-up

Weekly statistics, charts and insights to help you stay on top of the space industry.